Time,TemperatureF,DewpointF,PressureIn,WindDirection,WindDirectionDegrees,WindSpeedMPH,WindSpeedGustMPH,Humidity,HourlyPrecipIn,Conditions,Clouds,dailyrainin,SoftwareType,DateUTC
2013-03-16 00:02:00,65.0,49.0,29.72,West,264,10.0,31.0,56,0.00,,,0.00,,2013-03-16 05:02:00,
2013-03-16 00:12:00,65.0,49.0,29.72,West,264,10.0,31.0,56,0.00,,,0.00,,2013-03-16 05:12:00,
2013-03-16 00:21:00,65.0,48.0,29.71,WSW,253,12.0,28.0,55,0.00,,,0.00,,2013-03-16 05:21:00,
2013-03-16 00:32:00,65.0,48.0,29.70,West,265,11.0,22.0,55,0.00,,,0.00,,2013-03-16 05:32:00,
2013-03-16 00:42:00,65.0,48.0,29.70,West,265,11.0,22.0,55,0.00,,,0.00,,2013-03-16 05:42:00,
2013-03-16 00:52:00,64.0,48.0,29.70,West,263,10.0,22.0,56,0.00,,,0.00,,2013-03-16 05:52:00,
2013-03-16 01:02:00,64.0,47.0,29.70,WSW,239,11.0,22.0,55,0.00,,,0.00,,2013-03-16 06:02:00,
2013-03-16 01:12:00,64.0,47.0,29.70,WSW,239,11.0,22.0,55,0.00,,,0.00,,2013-03-16 06:12:00,
2013-03-16 01:22:00,64.0,48.0,29.69,WSW,254,7.0,21.0,57,0.00,,,0.00,,2013-03-16 06:22:00,
2013-03-16 01:32:00,63.0,48.0,29.69,WSW,253,11.0,20.0,58,0.00,,,0.00,,2013-03-16 06:32:00,
2013-03-16 01:42:00,63.0,48.0,29.69,WSW,253,11.0,20.0,58,0.00,,,0.00,,2013-03-16 06:42:00,
2013-03-16 01:52:00,63.0,48.0,29.69,WSW,251,10.0,20.0,57,0.00,,,0.00,,2013-03-16 06:52:00,
2013-03-16 02:02:00,63.0,48.0,29.68,SW,233,8.0,20.0,57,0.00,,,0.00,,2013-03-16 07:02:00,
2013-03-16 02:12:00,63.0,48.0,29.68,SW,233,8.0,20.0,57,0.00,,,0.00,,2013-03-16 07:12:00,
2013-03-16 02:22:00,63.0,47.0,29.68,WSW,244,11.0,22.0,56,0.00,,,0.00,,2013-03-16 07:22:00,
2013-03-16 02:32:00,62.0,46.0,29.68,WSW,258,6.0,19.0,56,0.00,,,0.00,,2013-03-16 07:32:00,
2013-03-16 02:42:00,62.0,46.0,29.68,WSW,258,6.0,19.0,56,0.00,,,0.00,,2013-03-16 07:42:00,
2013-03-16 02:52:00,62.0,46.0,29.68,NW,311,10.0,19.0,56,0.00,,,0.00,,2013-03-16 07:52:00,
2013-03-16 03:02:00,62.0,47.0,29.68,WSW,254,13.0,19.0,57,0.00,,,0.00,,2013-03-16 08:02:00,
2013-03-16 03:12:00,62.0,47.0,29.68,WSW,254,13.0,19.0,57,0.00,,,0.00,,2013-03-16 08:12:00,
2013-03-16 03:23:00,61.0,46.0,29.68,WSW,254,9.0,20.0,57,0.00,,,0.00,,2013-03-16 08:23:00,
2013-03-16 03:32:00,61.0,46.0,29.68,West,275,6.0,19.0,58,0.00,,,0.00,,2013-03-16 08:32:00,
2013-03-16 03:42:00,61.0,46.0,29.68,West,275,6.0,19.0,58,0.00,,,0.00,,2013-03-16 08:42:00,
2013-03-16 03:52:00,61.0,46.0,29.67,West,264,10.0,19.0,57,0.00,,,0.00,,2013-03-16 08:52:00,
2013-03-16 04:01:00,61.0,46.0,29.67,West,268,5.0,19.0,58,0.00,,,0.00,,2013-03-16 09:01:00,
2013-03-16 04:12:00,61.0,46.0,29.67,West,268,5.0,19.0,58,0.00,,,0.00,,2013-03-16 09:12:00,
2013-03-16 04:22:00,60.0,45.0,29.67,WSW,258,15.0,17.0,57,0.00,,,0.00,,2013-03-16 09:22:00,
2013-03-16 04:33:00,60.0,45.0,29.67,WSW,250,6.0,19.0,57,0.00,,,0.00,,2013-03-16 09:33:00,
2013-03-16 04:42:00,60.0,45.0,29.67,WSW,250,6.0,19.0,57,0.00,,,0.00,,2013-03-16 09:42:00,
2013-03-16 04:52:00,60.0,45.0,29.67,WSW,256,8.0,19.0,58,0.00,,,0.00,,2013-03-16 09:52:00,
2013-03-16 05:03:00,60.0,45.0,29.67,WSW,241,9.0,19.0,58,0.00,,,0.00,,2013-03-16 10:03:00,
2013-03-16 05:12:00,60.0,45.0,29.67,WSW,241,9.0,19.0,58,0.00,,,0.00,,2013-03-16 10:12:00,
2013-03-16 05:22:00,60.0,45.0,29.67,WNW,289,8.0,19.0,58,0.00,,,0.00,,2013-03-16 10:22:00,
2013-03-16 05:32:00,60.0,46.0,29.67,SW,230,14.0,18.0,59,0.00,,,0.00,,2013-03-16 10:32:00,
2013-03-16 05:42:00,60.0,46.0,29.67,SW,230,14.0,18.0,59,0.00,,,0.00,,2013-03-16 10:42:00,
2013-03-16 05:52:00,60.0,45.0,29.67,WSW,257,6.0,18.0,58,0.00,,,0.00,,2013-03-16 10:52:00,
2013-03-16 06:03:00,59.0,45.0,29.67,WSW,237,9.0,18.0,59,0.00,,,0.00,,2013-03-16 11:03:00,
2013-03-16 06:12:00,59.0,45.0,29.67,WSW,237,9.0,18.0,59,0.00,,,0.00,,2013-03-16 11:12:00,
2013-03-16 06:22:00,59.0,45.0,29.68,WSW,258,5.0,19.0,60,0.00,,,0.00,,2013-03-16 11:22:00,
2013-03-16 06:32:00,58.0,44.0,29.68,WSW,240,7.0,17.0,60,0.00,,,0.00,,2013-03-16 11:32:00,
2013-03-16 06:42:00,58.0,44.0,29.68,WSW,240,7.0,17.0,60,0.00,,,0.00,,2013-03-16 11:42:00,
2013-03-16 06:52:00,58.0,44.0,29.68,WSW,240,7.0,17.0,60,0.00,,,0.00,,2013-03-16 11:52:00,
2013-03-16 07:02:00,58.0,45.0,29.69,West,264,6.0,17.0,62,0.00,,,0.00,,2013-03-16 12:02:00,
2013-03-16 07:12:00,58.0,45.0,29.69,West,264,6.0,17.0,62,0.00,,,0.00,,2013-03-16 12:12:00,
2013-03-16 07:22:00,58.0,46.0,29.69,West,260,7.0,17.0,64,0.00,,,0.00,,2013-03-16 12:22:00,
2013-03-16 07:32:00,57.0,45.0,29.69,West,264,7.0,18.0,63,0.00,,,0.00,,2013-03-16 12:32:00,
2013-03-16 07:42:00,57.0,45.0,29.69,West,264,7.0,18.0,63,0.00,,,0.00,,2013-03-16 12:42:00,
2013-03-16 07:52:00,57.0,46.0,29.69,West,272,5.0,18.0,66,0.00,,,0.00,,2013-03-16 12:52:00,
2013-03-16 08:02:00,57.0,45.0,29.70,WSW,237,10.0,18.0,65,0.00,,,0.00,,2013-03-16 13:02:00,
2013-03-16 08:12:00,57.0,45.0,29.70,WSW,237,10.0,18.0,65,0.00,,,0.00,,2013-03-16 13:12:00,
2013-03-16 08:22:00,58.0,47.0,29.70,West,272,7.0,19.0,66,0.00,,,0.00,,2013-03-16 13:22:00,
2013-03-16 08:32:00,58.0,47.0,29.71,WSW,240,17.0,19.0,66,0.00,,,0.00,,2013-03-16 13:32:00,
2013-03-16 08:42:00,58.0,47.0,29.71,WSW,240,17.0,19.0,66,0.00,,,0.00,,2013-03-16 13:42:00,
2013-03-16 08:52:00,59.0,47.0,29.71,West,278,10.0,19.0,64,0.00,,,0.00,,2013-03-16 13:52:00,
2013-03-16 09:02:00,59.0,48.0,29.71,WSW,237,10.0,19.0,66,0.00,,,0.00,,2013-03-16 14:02:00,
2013-03-16 09:12:00,59.0,48.0,29.71,WSW,237,10.0,19.0,66,0.00,,,0.00,,2013-03-16 14:12:00,
2013-03-16 09:22:00,60.0,49.0,29.72,WNW,285,7.0,21.0,66,0.00,,,0.00,,2013-03-16 14:22:00,
2013-03-16 09:32:00,60.0,49.0,29.72,West,263,12.0,21.0,66,0.00,,,0.00,,2013-03-16 14:32:00,
2013-03-16 09:42:00,60.0,49.0,29.72,West,263,12.0,21.0,66,0.00,,,0.00,,2013-03-16 14:42:00,
2013-03-16 09:52:00,62.0,50.0,29.72,West,263,7.0,27.0,64,0.00,,,0.00,,2013-03-16 14:52:00,
2013-03-16 10:02:00,62.0,51.0,29.72,WSW,251,8.0,25.0,66,0.00,,,0.00,,2013-03-16 15:02:00,
2013-03-16 10:12:00,62.0,51.0,29.72,WSW,251,8.0,25.0,66,0.00,,,0.00,,2013-03-16 15:12:00,
2013-03-16 10:22:00,64.0,51.0,29.72,WSW,248,16.0,25.0,63,0.00,,,0.00,,2013-03-16 15:22:00,
2013-03-16 10:33:00,64.0,51.0,29.72,SW,233,12.0,24.0,62,0.00,,,0.00,,2013-03-16 15:33:00,
2013-03-16 10:43:00,64.0,51.0,29.72,SW,233,12.0,24.0,62,0.00,,,0.00,,2013-03-16 15:43:00,
2013-03-16 10:53:00,65.0,52.0,29.72,SW,230,13.0,24.0,62,0.00,,,0.00,,2013-03-16 15:53:00,
2013-03-16 11:03:00,66.0,51.0,29.72,WSW,241,8.0,22.0,58,0.00,,,0.00,,2013-03-16 16:03:00,
2013-03-16 11:12:00,66.0,51.0,29.72,WSW,241,8.0,22.0,58,0.00,,,0.00,,2013-03-16 16:12:00,
2013-03-16 11:22:00,67.0,52.0,29.73,WSW,251,7.0,22.0,59,0.00,,,0.00,,2013-03-16 16:22:00,
2013-03-16 11:33:00,67.0,52.0,29.73,WNW,285,8.0,20.0,59,0.00,,,0.00,,2013-03-16 16:33:00,
2013-03-16 11:42:00,67.0,52.0,29.73,WNW,285,8.0,20.0,59,0.00,,,0.00,,2013-03-16 16:42:00,
2013-03-16 11:53:00,68.0,51.0,29.73,WSW,253,11.0,20.0,54,0.00,,,0.00,,2013-03-16 16:53:00,
2013-03-16 12:03:00,67.0,50.0,29.74,West,261,7.0,22.0,55,0.00,,,0.00,,2013-03-16 17:03:00,
2013-03-16 12:12:00,67.0,50.0,29.74,West,261,7.0,22.0,55,0.00,,,0.00,,2013-03-16 17:12:00,
2013-03-16 12:22:00,67.0,50.0,29.74,West,270,5.0,22.0,54,0.00,,,0.00,,2013-03-16 17:22:00,
2013-03-16 12:32:00,68.0,51.0,29.74,West,271,8.0,22.0,54,0.00,,,0.00,,2013-03-16 17:32:00,
2013-03-16 12:42:00,68.0,51.0,29.74,West,271,8.0,22.0,54,0.00,,,0.00,,2013-03-16 17:42:00,
2013-03-16 12:53:00,69.0,50.0,29.75,NNW,328,8.0,22.0,51,0.00,,,0.00,,2013-03-16 17:53:00,
2013-03-16 13:02:00,69.0,51.0,29.75,West,280,5.0,26.0,52,0.00,,,0.00,,2013-03-16 18:02:00,
2013-03-16 13:13:00,69.0,51.0,29.75,West,280,5.0,26.0,52,0.00,,,0.00,,2013-03-16 18:13:00,
2013-03-16 13:22:00,70.0,50.0,29.75,NW,308,5.0,26.0,49,0.00,,,0.00,,2013-03-16 18:22:00,
2013-03-16 13:32:00,70.0,50.0,29.75,WNW,298,8.0,26.0,50,0.00,,,0.00,,2013-03-16 18:32:00,
2013-03-16 13:42:00,70.0,50.0,29.75,WNW,298,8.0,26.0,50,0.00,,,0.00,,2013-03-16 18:42:00,
2013-03-16 13:53:00,70.0,49.0,29.75,WNW,285,5.0,26.0,47,0.00,,,0.00,,2013-03-16 18:53:00,
2013-03-16 14:02:00,70.0,50.0,29.74,NW,316,7.0,17.0,49,0.00,,,0.00,,2013-03-16 19:02:00,
2013-03-16 14:12:00,70.0,50.0,29.74,NW,316,7.0,17.0,49,0.00,,,0.00,,2013-03-16 19:12:00,
2013-03-16 14:22:00,70.0,51.0,29.74,NW,306,6.0,17.0,51,0.00,,,0.00,,2013-03-16 19:22:00,
2013-03-16 14:32:00,71.0,52.0,29.74,WNW,301,8.0,14.0,51,0.00,,,0.00,,2013-03-16 19:32:00,
2013-03-16 14:42:00,71.0,52.0,29.74,WNW,301,8.0,14.0,51,0.00,,,0.00,,2013-03-16 19:42:00,
2013-03-16 14:53:00,70.0,50.0,29.73,NW,312,2.0,14.0,49,0.00,,,0.00,,2013-03-16 19:53:00,
2013-03-16 15:02:00,70.0,53.0,29.73,North,357,5.0,13.0,54,0.00,,,0.00,,2013-03-16 20:02:00,
2013-03-16 15:12:00,70.0,53.0,29.73,North,357,5.0,13.0,54,0.00,,,0.00,,2013-03-16 20:12:00,
2013-03-16 15:22:00,70.0,51.0,29.73,West,268,0.0,13.0,51,0.00,,,0.00,,2013-03-16 20:22:00,
2013-03-16 15:32:00,70.0,53.0,29.73,WNW,296,7.0,12.0,55,0.00,,,0.00,,2013-03-16 20:32:00,
2013-03-16 15:42:00,70.0,53.0,29.73,WNW,296,7.0,12.0,55,0.00,,,0.00,,2013-03-16 20:42:00,
2013-03-16 15:52:00,69.0,51.0,29.73,WNW,291,7.0,12.0,53,0.00,,,0.00,,2013-03-16 20:52:00,
2013-03-16 16:02:00,71.0,53.0,29.74,NW,320,1.0,11.0,53,0.00,,,0.00,,2013-03-16 21:02:00,
2013-03-16 16:12:00,71.0,53.0,29.74,NW,320,1.0,11.0,53,0.00,,,0.00,,2013-03-16 21:12:00,
2013-03-16 16:22:00,70.0,52.0,29.74,West,277,6.0,11.0,53,0.00,,,0.00,,2013-03-16 21:22:00,
2013-03-16 16:32:00,70.0,51.0,29.74,North,359,2.0,12.0,51,0.00,,,0.00,,2013-03-16 21:32:00,
2013-03-16 16:43:00,70.0,51.0,29.74,North,359,2.0,12.0,51,0.00,,,0.00,,2013-03-16 21:43:00,
2013-03-16 16:53:00,67.0,49.0,29.75,NNE,14,2.0,12.0,53,0.00,,,0.00,,2013-03-16 21:53:00,
2013-03-16 17:03:00,66.0,48.0,29.75,North,1,5.0,17.0,53,0.00,,,0.00,,2013-03-16 22:03:00,
2013-03-16 17:12:00,66.0,48.0,29.75,North,1,5.0,17.0,53,0.00,,,0.00,,2013-03-16 22:12:00,
2013-03-16 17:22:00,66.0,49.0,29.76,NNW,335,5.0,17.0,54,0.00,,,0.00,,2013-03-16 22:22:00,
2013-03-16 17:33:00,63.0,48.0,29.76,North,356,5.0,17.0,57,0.00,,,0.00,,2013-03-16 22:33:00,
2013-03-16 17:42:00,63.0,48.0,29.76,North,356,5.0,17.0,57,0.00,,,0.00,,2013-03-16 22:42:00,
2013-03-16 17:52:00,61.0,47.0,29.76,ENE,73,7.0,17.0,59,0.00,,,0.00,,2013-03-16 22:52:00,
2013-03-16 18:02:00,60.0,47.0,29.78,ENE,61,10.0,16.0,61,0.00,,,0.00,,2013-03-16 23:02:00,
2013-03-16 18:12:00,60.0,47.0,29.78,ENE,61,10.0,16.0,61,0.00,,,0.00,,2013-03-16 23:12:00,
2013-03-16 18:22:00,58.0,45.0,29.78,NE,41,5.0,16.0,63,0.00,,,0.00,,2013-03-16 23:22:00,
2013-03-16 18:32:00,56.0,44.0,29.79,NNE,24,11.0,19.0,65,0.00,,,0.00,,2013-03-16 23:32:00,
2013-03-16 18:42:00,56.0,44.0,29.79,NNE,24,11.0,19.0,65,0.00,,,0.00,,2013-03-16 23:42:00,
2013-03-16 18:52:00,55.0,43.0,29.79,North,10,3.0,19.0,65,0.00,,,0.00,,2013-03-16 23:52:00,
2013-03-16 19:01:00,54.0,43.0,29.81,North,1,4.0,17.0,66,0.00,,,0.00,,2013-03-17 00:01:00,
2013-03-16 19:12:00,54.0,43.0,29.81,North,1,4.0,17.0,66,0.00,,,0.00,,2013-03-17 00:12:00,
2013-03-16 19:22:00,53.0,42.0,29.82,North,356,2.0,17.0,67,0.00,,,0.00,,2013-03-17 00:22:00,
2013-03-16 19:32:00,52.0,42.0,29.83,NNE,20,3.0,17.0,69,0.00,,,0.00,,2013-03-17 00:32:00,
2013-03-16 19:42:00,52.0,42.0,29.83,NNE,20,3.0,17.0,69,0.00,,,0.00,,2013-03-17 00:42:00,
2013-03-16 19:52:00,51.0,41.0,29.83,ENE,71,6.0,17.0,68,0.00,,,0.00,,2013-03-17 00:52:00,
2013-03-16 20:02:00,50.0,41.0,29.83,ENE,65,7.0,18.0,71,0.00,,,0.00,,2013-03-17 01:02:00,
2013-03-16 20:12:00,50.0,41.0,29.83,ENE,65,7.0,18.0,71,0.00,,,0.00,,2013-03-17 01:12:00,
2013-03-16 20:22:00,50.0,41.0,29.84,ENE,72,4.0,18.0,70,0.00,,,0.00,,2013-03-17 01:22:00,
2013-03-16 20:32:00,49.0,40.0,29.83,NE,44,7.0,19.0,71,0.00,,,0.00,,2013-03-17 01:32:00,
2013-03-16 20:42:00,49.0,40.0,29.83,NE,44,7.0,19.0,71,0.00,,,0.00,,2013-03-17 01:42:00,
2013-03-16 20:53:00,49.0,41.0,29.83,ENE,58,4.0,19.0,73,0.00,,,0.00,,2013-03-17 01:53:00,
2013-03-16 21:02:00,50.0,41.0,29.84,NNE,27,2.0,17.0,72,0.00,,,0.00,,2013-03-17 02:02:00,
2013-03-16 21:12:00,50.0,41.0,29.84,NNE,27,2.0,17.0,72,0.00,,,0.00,,2013-03-17 02:12:00,
2013-03-16 21:22:00,49.0,40.0,29.85,NE,56,2.0,17.0,72,0.00,,,0.00,,2013-03-17 02:22:00,
2013-03-16 21:33:00,49.0,40.0,29.85,North,4,6.0,13.0,71,0.00,,,0.00,,2013-03-17 02:33:00,
2013-03-16 21:42:00,49.0,40.0,29.85,North,4,6.0,13.0,71,0.00,,,0.00,,2013-03-17 02:42:00,
2013-03-16 21:52:00,49.0,40.0,29.85,North,4,6.0,13.0,71,0.00,,,0.00,,2013-03-17 02:52:00,
2013-03-16 22:02:00,48.0,40.0,29.85,ENE,68,7.0,17.0,74,0.00,,,0.00,,2013-03-17 03:02:00,
2013-03-16 22:12:00,48.0,40.0,29.85,ENE,68,7.0,17.0,74,0.00,,,0.00,,2013-03-17 03:12:00,
2013-03-16 22:22:00,47.0,39.0,29.86,NNE,25,6.0,17.0,73,0.00,,,0.00,,2013-03-17 03:22:00,
2013-03-16 22:33:00,47.0,39.0,29.87,NNE,23,5.0,13.0,75,0.00,,,0.00,,2013-03-17 03:33:00,
2013-03-16 22:43:00,47.0,39.0,29.87,NNE,23,5.0,13.0,75,0.00,,,0.00,,2013-03-17 03:43:00,
2013-03-16 22:53:00,47.0,39.0,29.87,NE,56,8.0,13.0,74,0.00,,,0.00,,2013-03-17 03:53:00,
2013-03-16 23:03:00,46.0,39.0,29.87,ENE,68,3.0,12.0,75,0.00,,,0.00,,2013-03-17 04:03:00,
2013-03-16 23:12:00,46.0,39.0,29.87,ENE,68,3.0,12.0,75,0.00,,,0.00,,2013-03-17 04:12:00,
2013-03-16 23:23:00,46.0,39.0,29.87,ENE,68,3.0,12.0,75,0.00,,,0.00,,2013-03-17 04:23:00,
2013-03-16 23:32:00,46.0,39.0,29.87,NE,42,5.0,12.0,77,0.00,,,0.00,,2013-03-17 04:32:00,
2013-03-16 23:42:00,46.0,39.0,29.87,NE,42,5.0,12.0,77,0.00,,,0.00,,2013-03-17 04:42:00,
2013-03-16 23:53:00,45.0,38.0,29.86,ENE,69,6.0,12.0,77,0.00,,,0.00,,2013-03-17 04:53:00,